NOAA 16 DEB, 41078

Orbit data source: Space-Track

NOAA 16 DEB, 41078 is space debris in SSO originally from a launch on Thu, 21 Sep 2000 UTC launched from the Air Force Western Test Range (AFWTR). Debris objects in space refer to the collection of defunct objects orbiting the Earth. Examples of debris include non-operational satellites, rocket bodies, and fragments generated from explosions, collisions, or faulty payload assembly.

Loading next visibility...
Identifier
41078, 2000-055AM
Orbit
SSO
Country
Flag of USUS
Related business
Manufacturer
Unknown
Mission
Spacecraft
Bus & Motor
Unknown
Mass
Unknown
Launch date (UTC)
2000-09-21 (25 years ago)
Launch vehicle
Unknown
Launch site
Air Force Western Test Range (AFWTR)
Object type
Payload
Rocket body
Debris
Shape & HBR
Unknown
Radar Cross Section
Small (<0.1 m²)

Expand to show TLE details & history
Last TLE update: 21 hours ago

TLE from 21 hours ago
0 NOAA 16 DEB
1 41078U 00055AM  25242.12880210  .00000304  00000-0  35822-3 0  9997
2 41078  98.9013  19.5244 0289441  49.7930 312.8160 13.58180434483257
Epoch: 2025-08-30T03:05Z
TLE epoch observation values (Epoch: 2025-08-30T03:05:28.501Z)
Latitude
-0.00004°
Longitude
-5.41189°
Altitude
902.582 km
Speed
7.471 km/s
True Right ascension
01h 18m 05s
True Declination
0° 00' 00"
Sunlit
Object was in full shadow at epoch
Visualization orbit readout
Latitude
Unknown
Longitude
Unknown
Altitude
Unknown
Speed
Unknown
Apparent Right ascension
Unknown
Apparent Declination
Unknown
Sunlit
N/A
Visualization observer readout
Local Sidereal Time
15:44:39
Azimuth
Unknown
Elevation
Unknown
Doppler factor
Unknown
Orbital elements
Apogee altitude
1,254.258 km
Perigee altitude
824.861 km
Semi-major axis
7,417.697 km
Eccentricity
0.02894
Inclination
98.9013°
RAAN
19.5244°
Arg. of periapsis
49.793°
True anomaly
310.32255°
Mean anomaly
312.816°
Eccentric anomaly
311.5754°
Mean motion
3.39734 °/min
Orbital period
105.97 mins
BSTAR
0.00035822
Loading maneuver chart data...
Computing Atmospheric mass density...
Loading historical data...
Loading historical data...
Loading historical data...
Loading historical data...
Loading historical data...
Loading historical data...
Loading historical data...

Documentation

Showing up to 5 results
|